281  
ASUS45 KBOU 190910  
RWRCO  
 
WEATHER ROUNDUP FOR COLORADO  
NATIONAL WEATHER SERVICE DENVER/BOULDER CO  
300 AM MDT THU SEP 19 2019  
 
NOTE: "FAIR" INDICATES FEW OR NO CLOUDS BELOW 12000 FEET WITH NO  
SIGNIFICANT WEATHER AND/OR S TO VISIBILITY
.  
 
COZ001>005-013-030-031-191000-   
..NORTHWEST COLORADO
 
 
 
CITY SKY/WX TMP DP RH WIND PRES REMARKS
 
CRAIG FAIR 42 35 76 CALM 30.06F  
HAYDEN FAIR 52 34 50 SE8 30.11S  
MEEKER FAIR 47 34 60 NE3 30.07S  
RANGELY FAIR 49 35 56 E5 29.96F  
RABBIT EARS PA FAIR 46 32 57 MISG 30.36F  
STEAMBOAT SPGS FAIR 43 36 75 NW3 30.13F  
WALDEN NOT AVBL  

 
 
COZ006>008-011-191000-   
..WEST CENTRAL VALLEYS
 
 
 
CITY SKY/WX TMP DP RH WIND PRES REMARKS
 
GRAND JUNCTION FAIR 66 37 34 E12 29.97S  
MONTROSE FAIR 60 36 40 SE12 30.08S  
EAGLE FAIR 47 34 60 CALM 30.16S  
RIFLE FAIR 57 37 47 CALM 30.04R  
DELTA MOCLDY 61 38 43 NE3 30.04S  
NUCLA MOCLDY 63 34 34 SE9 30.11S  

 
 
COZ017>023-064>068-191000-   
..SOUTHWEST COLORADO
 
 
 
CITY SKY/WX TMP DP RH WIND PRES REMARKS
 
DURANGO MOCLDY 51 46 83 CALM 30.18S  
CORTEZ FAIR 51 39 63 E5 30.11R  
PAGOSA SPRINGS FAIR 47 40 77 CALM 30.26S  
TELLURIDE MOCLDY 55 32 41 CALM 30.32S  
WOLF CREEK PAS FAIR 39 32 75 S14G22 30.53F  

 
 
COZ009-010-012-014-032>034-037-058>063-191000-   
..CENTRAL COLORADO
 
 
 
CITY SKY/WX TMP DP RH WIND PRES REMARKS
 
ASPEN FAIR 49 33 54 S6 30.20F  
BUENA VISTA FAIR 43 32 63 W6 30.26S  
COPPER MTN FAIR 46 30 53 S10G17 30.48F  
BERTHOUD PASS FAIR 37 23 56 W13G24 30.49F  
COTTONWOOD PAS FAIR 52 32 46 N3 30.36F  
GUNNISON FAIR 39 34 82 NE6 30.26S  
GRANBY NOT AVBL  
KREMMLING FAIR 39 32 75 CALM 30.21F  
LEADVILLE FAIR 35 26 69 CALM 30.35F  
MONARCH PASS FAIR 41 28 60 MISG 30.58F  
SALIDA FAIR 58 33 38 W9 30.30S  
SUNLIGHT NOT AVBL  
WILKERSON PASS FAIR 43 30 61 SW18G24 30.44F  

 
 
COZ069>075-191000-   
..SAN LUIS VALLEY/SANGRE DE CRISTO MOUNTAINS
 
 
 
CITY SKY/WX TMP DP RH WIND PRES REMARKS
 
ALAMOSA FAIR 42 35 76 S7 30.24S  
DEL NORTE FAIR 47 34 59 W12 30.27F  
LA VETA PASS FAIR 46 30 53 SW6 30.38F  
SAGUACHE FAIR 41 32 70 CALM 30.28S  

 
 
COZ035-036-038>040-191000-   
..NORTHERN COLORADO FRONT RANGE
 
 
 
CITY SKY/WX TMP DP RH WIND PRES REMARKS
 
DENVER INTL AP FAIR 57 41 55 SW9 30.04F  
AURORA CLEAR 56 41 58 S10 30.05F  
FRONT RANGE AP FAIR 53 46 74 S8 30.05F  
ERIE MUNI ARPT FAIR 49 40 69 CALM 30.09F  
BOULDER MUN AP FAIR 55 43 62 CALM 30.04F  
CENTENNIAL FAIR 57 42 57 S6 30.07F  
BROOMFIELD FAIR 59 37 44 N6 30.06F  
FORT COLLINS FAIR 53 44 71 N9 30.04F  
LONGMONT FAIR 52 41 67 CALM 30.05F  

 
 
COZ041-046-047-076>085-087-088-191000-   
..PIKES PEAK/PALMER DIVIDE AND SOUTHERN FOOTHILLS
 
 
 
CITY SKY/WX TMP DP RH WIND PRES REMARKS
 
COLO. SPRINGS FAIR 52 39 61 N6 30.11F  
A. F. ACADEMY FAIR 47 37 69 N8 30.10F  
SCHRIEVER AFB NOT AVBL  
CHEYENNE MTN FAIR 58 38 46 CALM 30.09F  
ELLICOTT FAIR 54 46 74 CALM 30.11F  
FALCON FAIR 51 39 62 N6 30.15S  
FORT CARSON FAIR 53 38 57 N9 30.06F  
LIMON FAIR 45 40 82 N3 30.06F  
MONUMENT HILL FAIR 46 37 71 SW8 30.16S  
CANON CITY FAIR 57 37 47 W7G16 30.06F  
WALSENBURG NOT AVBL  
TRINIDAD FAIR 55 36 48 W7 30.10F  

 
 
COZ042>045-048>051-090-091-191000-   
..NORTHEAST COLORADO
 
 
 
CITY SKY/WX TMP DP RH WIND PRES REMARKS
 
GREELEY ARPT FAIR 51 46 83 NW5 30.03S  
AKRON FAIR 59 50 72 SE12 30.02F  
BURLINGTON FAIR 60 57 89 S8 30.00F  
WRAY FAIR 59 52 77 NE6 30.00F  
YUMA FAIR 54 50 87 SE6 30.01F  
STERLING FAIR 55 50 82 CALM 30.01R  
HOLYOKE NOT AVBL  
FORT MORGAN FAIR 56 45 65 CALM 30.04S  

 
 
COZ086-089-092>099-191000-   
..SOUTHEAST COLORADO
 
 
 
CITY SKY/WX TMP DP RH WIND PRES REMARKS
 
PUEBLO FAIR 56 42 59 W6 30.02S  
LA JUNTA FAIR 60 43 53 W15 29.98R  
LAMAR CLEAR 73 54 49 S20G28 29.92F  
SPRINGFIELD N/A 66 53 63 SW12 30.01F  

 
 
 
CLICK HERE TO GO TO PREVIOUS BULLETINS.

The Nexlab CO Page Main Text Page